| time (UTC) | temp F | wind direction | speed MPH | gust MPH | rain 1hr in | rain 24hr in | rain mn in | humidity % | barometer mb |
| 20260905173006 | 58 | 225 | 0.0 | 0.0 | 0.00 | 0.01 | 0.01 | 97 | 1009.9 |
| 20260905171506 | 57 | 206 | 0.0 | 0.0 | 0.00 | 0.01 | 0.01 | 97 | 1009.9 |
| 20260905170004 | 56 | 206 | 0.0 | 0.0 | 0.00 | 0.01 | 0.01 | 97 | 1009.9 |
| 20260905164503 | 55 | 233 | 0.0 | 0.0 | 0.00 | 0.01 | 0.01 | 96 | 1009.9 |
| 20260905163004 | 55 | 190 | 0.0 | 0.0 | 0.00 | 0.01 | 0.01 | 96 | 1009.8 |
| 20260905161502 | 54 | 28 | 0.0 | 0.0 | 0.00 | 0.01 | 0.01 | 96 | 1009.8 |
| 20260905160002 | 54 | 28 | 0.0 | 0.0 | 0.00 | 0.01 | 0.01 | 96 | 1009.9 |
| 20260905154502 | 53 | 28 | 0.0 | 0.0 | 0.00 | 0.01 | 0.01 | 96 | 1009.9 |
| 20260905153000 | 53 | 28 | 0.0 | 0.0 | 0.00 | 0.01 | 0.01 | 96 | 1009.8 |
| 20260905151600 | 52 | 28 | 0.0 | 0.0 | 0.00 | 0.01 | 0.01 | 96 | 1009.7 |
| 20260905150101 | 52 | 54 | 0.0 | 0.0 | 0.00 | 0.01 | 0.01 | 96 | 1009.6 |
| 20260905144558 | 52 | 52 | 0.0 | 0.0 | 0.00 | 0.01 | 0.01 | 96 | 1009.5 |
| 20260905143058 | 52 | 47 | 0.0 | 0.0 | 0.00 | 0.01 | 0.01 | 96 | 1009.6 |
| 20260905141612 | 52 | 32 | 0.0 | 0.0 | 0.00 | 0.01 | 0.01 | 96 | 1009.4 |
| 20260905134606 | 51 | 32 | 0.0 | 0.0 | 0.00 | 0.01 | 0.01 | 96 | 1009.3 |
| 20260905133058 | 51 | 32 | 0.0 | 0.0 | 0.00 | 0.01 | 0.01 | 96 | 1009.2 |
| 20260905131558 | 52 | 32 | 0.0 | 0.0 | 0.00 | 0.01 | 0.01 | 96 | 1009.2 |
| 20260905130057 | 52 | 32 | 0.0 | 0.0 | 0.00 | 0.01 | 0.01 | 96 | 1009.1 |
| 20260905124551 | 52 | 32 | 0.0 | 0.0 | 0.00 | 0.01 | 0.01 | 96 | 1009.1 |
| 20260905123055 | 52 | 32 | 0.0 | 0.0 | 0.00 | 0.01 | 0.01 | 96 | 1009.3 |
| 20260905121549 | 52 | 38 | 0.0 | 0.0 | 0.00 | 0.01 | 0.01 | 96 | 1009.2 |
| 20260905120147 | 52 | 46 | 0.0 | 0.0 | 0.00 | 0.01 | 0.01 | 96 | 1009.3 |
| 20260905114621 | 52 | 26 | 0.0 | 0.0 | 0.01 | 0.01 | 0.01 | 95 | 1009.3 |
| 20260905113044 | 51 | 49 | 0.0 | 0.0 | 0.01 | 0.01 | 0.01 | 95 | 1009.3 |
| 20260905111550 | 51 | 36 | 0.0 | 0.0 | 0.01 | 0.01 | 0.01 | 95 | 1009.4 |
| 20260905110042 | 51 | 58 | 0.0 | 0.0 | 0.01 | 0.01 | 0.01 | 95 | 1009.4 |
| 20260905104539 | 51 | 24 | 0.0 | 0.0 | 0.00 | 0.00 | 0.00 | 95 | 1009.5 |
| 20260905103038 | 51 | 24 | 0.0 | 0.0 | 0.00 | 0.00 | 0.00 | 95 | 1009.7 |
| 20260905101536 | 52 | 24 | 0.0 | 0.0 | 0.00 | 0.00 | 0.00 | 95 | 1009.9 |
| 20260905100040 | 52 | 24 | 0.0 | 0.0 | 0.00 | 0.00 | 0.00 | 95 | 1009.8 |
| 20260905094533 | 52 | 24 | 0.0 | 0.0 | 0.00 | 0.00 | 0.00 | 95 | 1009.8 |
| 20260905093032 | 53 | 24 | 0.0 | 0.0 | 0.00 | 0.00 | 0.00 | 94 | 1009.9 |
| 20260905091528 | 53 | 24 | 0.0 | 0.0 | 0.00 | 0.00 | 0.00 | 94 | 1010.0 |
| 20260905090027 | 54 | 24 | 0.0 | 0.0 | 0.00 | 0.00 | 0.00 | 94 | 1010.2 |
| 20260905084523 | 55 | 319 | 0.0 | 0.0 | 0.00 | 0.00 | 0.00 | 94 | 1010.0 |
| 20260905083022 | 56 | 319 | 0.0 | 0.0 | 0.00 | 0.00 | 0.00 | 94 | 1010.1 |
| 20260905081520 | 56 | 319 | 0.0 | 0.0 | 0.00 | 0.00 | 0.00 | 94 | 1010.0 |
| 20260905080022 | 56 | 319 | 0.0 | 0.0 | 0.00 | 0.00 | 0.00 | 94 | 1010.0 |
| 20260905074519 | 56 | 319 | 0.0 | 0.0 | 0.00 | 0.00 | 0.00 | 94 | 1010.0 |
| 20260905073021 | 57 | 319 | 0.0 | 0.0 | 0.00 | 0.00 | 0.00 | 94 | 1010.1 |
| 20260905071515 | 57 | 319 | 0.0 | 0.0 | 0.00 | 0.00 | 0.00 | 94 | 1010.2 |
| 20260905070012 | 57 | 319 | 0.0 | 0.0 | 0.00 | 0.00 | 0.00 | 94 | 1010.1 |
| 20260905064514 | 57 | 24 | 0.0 | 0.0 | 0.00 | 0.01 | 0.00 | 94 | 1010.0 |
| 20260905063012 | 57 | 324 | 0.0 | 0.0 | 0.00 | 0.01 | 0.00 | 94 | 1009.9 |
| 20260905061511 | 56 | 289 | 0.0 | 0.0 | 0.00 | 0.01 | 0.00 | 93 | 1009.9 |
| 20260905060015 | 56 | 289 | 0.0 | 0.0 | 0.00 | 0.01 | 0.00 | 93 | 1009.9 |
| 20260905054509 | 57 | 22 | 0.0 | 0.0 | 0.00 | 0.01 | 0.00 | 93 | 1010.0 |
| 20260905053011 | 57 | 287 | 0.0 | 0.0 | 0.00 | 0.01 | 0.00 | 93 | 1010.0 |
| 20260905051509 | 57 | 297 | 0.0 | 0.0 | 0.00 | 0.01 | 0.00 | 93 | 1010.0 |
| 20260905050008 | 58 | 297 | 0.0 | 0.0 | 0.00 | 0.01 | 0.00 | 92 | 1010.1 |
| 20260905044507 | 58 | 308 | 0.0 | 0.0 | 0.00 | 0.01 | 0.00 | 92 | 1010.1 |
| 20260905043006 | 57 | 308 | 0.0 | 0.0 | 3.47 | 0.00 | 0.00 | 91 | 1010.1 |
| 20260905041505 | 58 | 308 | 0.0 | 0.0 | 0.00 | 0.01 | 0.00 | 90 | 1009.9 |
| 20260905040004 | 58 | 340 | 0.0 | 0.0 | 0.00 | 0.01 | 0.00 | 90 | 1009.7 |
| 20260905034502 | 58 | 240 | 0.0 | 0.0 | 0.00 | 0.02 | 0.00 | 89 | 1009.7 |
| 20260905033006 | 59 | 271 | 0.0 | 0.0 | 0.00 | 0.02 | 0.00 | 88 | 1009.5 |
| 20260905031503 | 59 | 300 | 0.0 | 1.0 | 0.00 | 0.02 | 0.00 | 87 | 1009.5 |
| 20260905030101 | 59 | 302 | 0.0 | 0.0 | 0.00 | 0.02 | 0.00 | 86 | 1009.4 |
| 20260905024600 | 60 | 232 | 0.0 | 0.0 | 0.00 | 0.03 | 0.00 | 84 | 1009.5 |
| 20260905023127 | 61 | 298 | 0.0 | 0.0 | 0.00 | 0.03 | 0.00 | 83 | 1009.4 |
| 20260905021601 | 62 | 313 | 0.0 | 1.0 | 0.00 | 0.03 | 0.00 | 81 | 1009.4 |
| 20260905020104 | 62 | 281 | 0.0 | 0.0 | 0.00 | 0.03 | 0.00 | 79 | 1009.4 |
| 20260905014602 | 63 | 30 | 0.0 | 0.0 | 0.00 | 0.03 | 0.00 | 76 | 1009.5 |
| 20260905013057 | 64 | 57 | 0.0 | 0.0 | 0.00 | 0.03 | 0.00 | 74 | 1009.5 |
| 20260905011603 | 65 | 330 | 0.0 | 5.0 | 0.00 | 0.03 | 0.00 | 72 | 1009.3 |
| 20260905010057 | 65 | 350 | 0.0 | 0.0 | 0.00 | 0.03 | 0.00 | 70 | 1009.3 |
| 20260905004555 | 66 | 293 | 0.0 | 6.0 | 0.00 | 0.03 | 0.00 | 68 | 1009.2 |
| 20260905003056 | 67 | 341 | 0.0 | 0.0 | 0.00 | 0.03 | 0.00 | 67 | 1009.0 |
| 20260905001603 | 68 | 90 | 0.0 | 0.0 | 0.00 | 0.03 | 0.00 | 67 | 1009.0 |
| 20260905000112 | 67 | 260 | 0.0 | 0.0 | 0.00 | 0.03 | 0.00 | 68 | 1009.0 |
| 20260904234554 | 68 | 314 | 0.0 | 0.0 | 0.00 | 0.03 | 0.00 | 67 | 1008.9 |
| 20260904233053 | 68 | 214 | 0.0 | 0.0 | 0.00 | 0.03 | 0.00 | 66 | 1008.9 |
| 20260904231558 | 68 | 210 | 0.0 | 5.0 | 0.00 | 0.03 | 0.00 | 67 | 1009.0 |
| 20260904230053 | 69 | 252 | 0.0 | 0.0 | 0.00 | 0.03 | 0.00 | 62 | 1009.0 |
| 20260904224556 | 69 | 61 | 0.0 | 0.0 | 0.00 | 0.03 | 0.00 | 63 | 1008.9 |
| 20260904223055 | 69 | 39 | 0.0 | 0.0 | 0.00 | 0.03 | 0.00 | 64 | 1009.0 |
| 20260904221551 | 71 | 14 | 0.0 | 0.0 | 0.00 | 0.03 | 0.00 | 60 | 1009.1 |
| 20260904220110 | 70 | 246 | 0.0 | 0.0 | 0.00 | 0.03 | 0.00 | 60 | 1009.2 |
| 20260904214550 | 69 | 60 | 0.0 | 0.0 | 0.00 | 0.03 | 0.00 | 60 | 1009.2 |
| 20260904213050 | 71 | 304 | 0.0 | 0.0 | 0.00 | 0.03 | 0.00 | 55 | 1009.1 |
| 20260904211555 | 71 | 246 | 0.0 | 0.0 | 0.00 | 0.03 | 0.00 | 57 | 1009.2 |
| 20260904210057 | 70 | 79 | 1.0 | 4.0 | 0.00 | 0.03 | 0.00 | 63 | 1009.2 |
| 20260904204547 | 67 | 294 | 0.0 | 0.0 | 0.00 | 0.03 | 0.00 | 67 | 1009.3 |
| 20260904203044 | 67 | 331 | 0.0 | 0.0 | 0.00 | 0.03 | 0.00 | 68 | 1009.3 |
| 20260904201539 | 66 | 355 | 0.0 | 0.0 | 0.00 | 0.03 | 0.00 | 73 | 1009.3 |
| 20260904200040 | 68 | 303 | 0.0 | 0.0 | 0.00 | 0.03 | 0.00 | 69 | 1009.4 |
| 20260904194636 | 67 | 187 | 0.0 | 0.0 | 0.00 | 0.03 | 0.00 | 70 | 1009.5 |
| 20260904193039 | 67 | 344 | 0.0 | 7.0 | 0.00 | 0.03 | 0.00 | 73 | 1009.7 |
| 20260904191539 | 65 | 321 | 0.0 | 6.0 | 0.00 | 0.03 | 0.00 | 81 | 1009.8 |
| 20260904190029 | 63 | 331 | 0.0 | 0.0 | 0.00 | 0.03 | 0.00 | 87 | 1009.7 |
| 20260904184524 | 63 | 26 | 0.0 | 0.0 | 0.00 | 0.03 | 0.00 | 92 | 1009.6 |
| 20260904183021 | 61 | 108 | 0.0 | 0.0 | 0.00 | 0.03 | 0.00 | 96 | 1009.6 |
| 20260904181518 | 60 | 21 | 0.0 | 0.0 | 0.00 | 0.03 | 0.00 | 97 | 1009.6 |
| 20260904180016 | 59 | 163 | 0.0 | 0.0 | 0.00 | 0.03 | 0.00 | 97 | 1009.4 |
| 20260904174529 | 58 | 292 | 0.0 | 0.0 | 0.00 | 0.06 | 0.00 | 97 | 1009.4 |